| time (UTC) | temp C | wind direction | speed KPH | gust KPH | rain 1hr cm | rain 24hr cm | rain mn cm | humidity % | barometer mb |
| 20260509232010 | 19 | 158 | 4.8 | 4.8 | 0.00 | 0.00 | 0.25 | 60 | 970.2 |
| 20260509231509 | 19 | 154 | 4.8 | 4.8 | 0.00 | 0.00 | 0.25 | 60 | 970.5 |
| 20260509231010 | 20 | 164 | 6.4 | 6.4 | 0.00 | 0.00 | 0.25 | 59 | 970.2 |
| 20260509230010 | 20 | 180 | 4.8 | 4.8 | 0.00 | 0.00 | 0.25 | 59 | 970.5 |
| 20260509225037 | 20 | 170 | 11.3 | 11.3 | 0.00 | 0.00 | 0.25 | 59 | 970.2 |
| 20260509215920 | 20 | 173 | 4.8 | 4.8 | 0.00 | 0.00 | 0.25 | 59 | 970.2 |
| 20260509214420 | 19 | 250 | 6.4 | 6.4 | 0.00 | 0.00 | 0.25 | 58 | 970.2 |
| 20260509211420 | 18 | 157 | 8.0 | 8.0 | 0.00 | 0.00 | 0.25 | 61 | 970.5 |
| 20260509205920 | 18 | 171 | 9.7 | 9.7 | 0.00 | 0.00 | 0.25 | 63 | 970.9 |
| 20260509205421 | 18 | 231 | 6.4 | 6.4 | 0.00 | 0.00 | 0.25 | 64 | 970.9 |
| 20260509203920 | 18 | 176 | 3.2 | 3.2 | 0.00 | 0.00 | 0.25 | 65 | 970.9 |
| 20260509203420 | 18 | 144 | 3.2 | 3.2 | 0.00 | 0.00 | 0.25 | 65 | 971.2 |
| 20260509200921 | 17 | 135 | 4.8 | 4.8 | 0.00 | 0.00 | 0.25 | 67 | 971.2 |
| 20260509200421 | 18 | 228 | 4.8 | 4.8 | 0.00 | 0.00 | 0.25 | 66 | 971.2 |
| 20260509195421 | 17 | 219 | 4.8 | 4.8 | 0.00 | 0.00 | 0.25 | 68 | 971.9 |
| 20260509190421 | 17 | 153 | 6.4 | 6.4 | 0.00 | 0.00 | 0.25 | 71 | 971.9 |
| 20260509184421 | 17 | 133 | 4.8 | 4.8 | 0.00 | 0.00 | 0.25 | 70 | 971.9 |
| 20260509183421 | 16 | 158 | 4.8 | 4.8 | 0.00 | 0.00 | 0.25 | 71 | 971.9 |
| 20260509182920 | 17 | 158 | 4.8 | 4.8 | 0.00 | 0.00 | 0.25 | 71 | 971.9 |
| 20260509181921 | 16 | 209 | 4.8 | 4.8 | 0.00 | 0.00 | 0.25 | 76 | 972.2 |
| 20260509181420 | 16 | 223 | 6.4 | 6.4 | 0.00 | 0.00 | 0.25 | 74 | 971.9 |
| 20260509180920 | 16 | 201 | 6.4 | 6.4 | 0.00 | 0.00 | 0.25 | 76 | 972.2 |
| 20260509175921 | 15 | 186 | 6.4 | 6.4 | 0.00 | 0.00 | 0.25 | 78 | 972.2 |
| 20260509174921 | 15 | 154 | 6.4 | 6.4 | 0.00 | 0.00 | 0.25 | 80 | 972.2 |
| 20260509171920 | 15 | 141 | 3.2 | 3.2 | 0.00 | 0.00 | 0.25 | 84 | 972.2 |
| 20260509171421 | 14 | 110 | 1.6 | 1.6 | 0.00 | 0.00 | 0.25 | 85 | 972.6 |
| 20260509163953 | 13 | 180 | 3.2 | 3.2 | 0.00 | 0.00 | 0.25 | 88 | 972.2 |
| 20260509162453 | 13 | 195 | 4.8 | 4.8 | 0.00 | 0.00 | 0.25 | 89 | 972.2 |
| 20260509161953 | 13 | 191 | 8.0 | 8.0 | 0.00 | 0.00 | 0.25 | 90 | 972.6 |